TOURFACTS.DK  
Stats and Facts from Tour de France.

Tour de France 2018 starts in 203 days
  Riders   Stages   Teams   Summits   Yearly  


 
Search by year

 2017 - St. 21:  14824 starters.
  5132 different riders.
  635 teams.
  2232 stages.
  454 restdays.
  439589.60 km.
  5653 abandonnees.


Top 3
Christopher Froome86:20:55
Rigoberto Uran86:21:49
Romain Bardet86:23:15
Warren Barguil169 pt.
Primoz Roglic80 pt.
Thomas De Gendt64 pt.
Michael Matthews359 pt.
André Greipel234 pt.
Edvald Boasson Hagen220 pt.
Simon Yates86:27:09
Louis Meintjes86:29:15
Emanuel Buchmann86:54:16
Facts from Tour de France 2017
  |   Stages.  |   Stage winners.  |   Days in yellow  |   Average speed.  |   Route.  |   Teams.  |   All riders.  |   Rookies.  |   Withdrawls.  |  

  |   GC.  |   Polka  |   Green  |   White  |   Summits. (In tour)  |   Summits. (Points)  |   Miscellaneous.  |  

Stage 5 on 05 - 07 - 2017
         Owning:    Christopher Froome      Fabio Aru      Arnaud Démare      Simon Yates  

Pick a stage:  1 2 3 4 5 6 7 8 9 10 11 12 13 14 15 16 17 18 19 20 21
  VittelLa Planche-des-Belles-Filles | Dist: 160.50 km.
Cat: 3Côte d'EsmoulièresBELJan Bakelants
2 points
 
Cat: 1La Planche des Belles FillesITAFabio Aru
10 points
 

Average speed for all riders in stage:  41,209 km./hr.
    Place:Name:Team:Time:Km/h:
ITAFabio AruKAZAstana Pro Team03:44:06  +  00:00:00=42,972 
ENGDaniel MartinBELQuick-Step Floors03:44:22  +  00:00:16=42,921 
KENChristopher FroomeGBRSky Procycling03:44:26  +  00:00:20=42,908 
4 AUSRichie PorteUSABMC Racing Team03:44:26  +  00:00:20=42,908 
5 FRARomain BardetFRAAg2r La Mondiale03:44:30  +  00:00:24=42,895 
6 ENGSimon YatesAUSOrica - Scott03:44:32  +  00:00:26=42,889 
7 COLRigoberto UranUSACannondale-Drapac Pro Cycling ..03:44:32  +  00:00:26=42,889 
8 ESPAlberto ContadorUSATrek – Segafredo03:44:32  +  00:00:26=42,889 
9 COLNairo QuintanaESPMovistar Team03:44:40  +  00:00:34=42,864 
10 WALGeraint ThomasGBRSky Procycling03:44:46  +  00:00:40=42,844 
11 RSALouis MeintjesUAEUAE Team Emirates03:44:46  +  00:00:40=42,844 
12 POLRafal MajkaDEUBora–Hansgrohe03:44:46  +  00:00:40=42,844 
13 FRANicolas RocheUSABMC Racing Team03:45:11  +  00:01:05=42,765 
14 NZLGeorge BennettNLDTeam Lotto NL - Jumbo03:45:13  +  00:01:07=42,759 
15 ESPMikel Landa MeanaGBRSky Procycling03:45:13  +  00:01:07=42,759 
16 SUIJakob FuglsangKAZAstana Pro Team03:45:13  +  00:01:07=42,759 
17 FRAPierre-Roger LatourFRAAg2r La Mondiale03:45:16  +  00:01:10=42,749 
18 BELSerge PauwelsZAFDimension Data03:45:16  +  00:01:10=42,749 
19 FRAGuillaume MartinBELWanty – Groupe Gobert03:45:19  +  00:01:13=42,740 
20 ITADamiano CarusoUSABMC Racing Team03:45:19  +  00:01:13=42,740 
21 USAAndrew TalanskyUSACannondale-Drapac Pro Cycling ..03:45:19  +  00:01:13=42,740 
22 GEREmanuel BuchmannDEUBora–Hansgrohe03:45:23  +  00:01:17=42,727 
23 ESPMikel NieveGBRSky Procycling03:45:23  +  00:01:17=42,727 
24 COLSergio Luis HenaoGBRSky Procycling03:45:42  +  00:01:36=42,667 
25 NEDLaurens ten DamDEUTeam Sunweb03:45:45  +  00:01:39=42,658 
26 BELTiesj BenootBELLotto Soudal03:45:49  +  00:01:43=42,645 
27 SUIMathias FrankFRAAg2r La Mondiale03:45:53  +  00:01:47=42,633 
28 BELTim WellensBELLotto Soudal03:45:53  +  00:01:47=42,633 
29 POLMichal KwiatkowskiGBRSky Procycling03:45:58  +  00:01:52=42,617 
30 SLOJanez BrajkovicBHRBahrain-Merida03:46:00  +  00:01:54=42,611 
31 COLJohan Esteban ChavesAUSOrica - Scott03:46:05  +  00:01:59=42,595 
32 NEDBauke MollemaUSATrek – Segafredo03:46:05  +  00:01:59=42,595 
33 CZEOndrej CinkBHRBahrain-Merida03:46:05  +  00:01:59=42,595 
34 CZERoman KreuzigerAUSOrica - Scott03:46:19  +  00:02:13=42,551 
35 FRABrice FeilluFRAFortuneo - Vital Concept03:46:23  +  00:02:17=42,538 
36 FRALilian CalmejaneFRADirect Energie03:46:30  +  00:02:24=42,517 
37 FRAPierre RollandUSACannondale-Drapac Pro Cycling ..03:46:30  +  00:02:24=42,517 
38 ARGEduardo SepulvedaFRAFortuneo - Vital Concept03:46:32  +  00:02:26=42,510 
39 FRASylvain ChavanelFRADirect Energie03:46:32  +  00:02:26=42,510 
40 FRANicolas EdetFRACofidis – Solutions Crédits03:46:40  +  00:02:34=42,485 
41 FRAAlexis VuillermozFRAAg2r La Mondiale03:46:57  +  00:02:51=42,432 
42 COLCarlos Alberto BetancurESPMovistar Team03:46:57  +  00:02:51=42,432 
43 BELThomas DegandBELWanty – Groupe Gobert03:47:08  +  00:03:02=42,398 
44 NEDMaurits LammertinkCHETeam Katusha - Alpecin03:47:12  +  00:03:06=42,386 
45 FRARudy MolardFRAFDJ03:47:14  +  00:03:08=42,379 
46 FRARomain HardyFRAFortuneo - Vital Concept03:47:28  +  00:03:22=42,336 
47 SLOPrimoz RoglicNLDTeam Lotto NL - Jumbo03:47:31  +  00:03:25=42,327 
48 HRVRobert KiserlovskiCHETeam Katusha - Alpecin03:47:31  +  00:03:25=42,327 
49 FRAElie GesbertFRAFortuneo - Vital Concept03:47:47  +  00:03:41=42,277 
50 NEDMarco MinnaardBELWanty – Groupe Gobert03:47:56  +  00:03:50=42,249 
51 BELJan BakelantsFRAAg2r La Mondiale03:48:08  +  00:04:02=42,212 
52 FRAThibaut PinotFRAFDJ03:48:17  +  00:04:11=42,184 
53 FRAMaxime BouetFRAFortuneo - Vital Concept03:48:29  +  00:04:23=42,147 
54 COLJarlinson Pantano GomezUSATrek – Segafredo03:48:35  +  00:04:29=42,129 
55 FRATony GallopinBELLotto Soudal03:48:43  +  00:04:37=42,104 
56 ESPJavier Moreno BazánBHRBahrain-Merida03:48:46  +  00:04:40=42,095 
57 FRAWarren BarguilDEUTeam Sunweb03:48:46  +  00:04:40=42,095 
58 FRAArthur VichotFRAFDJ03:48:50  +  00:04:44=42,083 
59 ESPJonathan CastroviejoESPMovistar Team03:48:55  +  00:04:49=42,068 
60 ESPLuis Angel MateFRACofidis – Solutions Crédits03:49:07  +  00:05:01=42,031 
61 KAZAlexey LutsenkoKAZAstana Pro Team03:49:39  +  00:05:33=41,933 
62 AUSJay McCarthyDEUBora–Hansgrohe03:49:54  +  00:05:48=41,888 
63 BELPhilippe GilbertBELQuick-Step Floors03:50:17  +  00:06:11=41,818 
64 PORTiago PintoCHETeam Katusha - Alpecin03:50:27  +  00:06:21=41,788 
65 ITADiego UlissiUAEUAE Team Emirates03:50:57  +  00:06:51=41,697 
66 ITAManuele MoriUAEUAE Team Emirates03:50:57  +  00:06:51=41,697 
67 GERGianluca BrambillaBELQuick-Step Floors03:50:57  +  00:06:51=41,697 
68 ESPHaimar ZubeldiaUSATrek – Segafredo03:50:57  +  00:06:51=41,697 
69 FRAThomas VoecklerFRADirect Energie03:51:34  +  00:07:28=41,586 
70 USANathan BrownUSACannondale-Drapac Pro Cycling ..03:51:34  +  00:07:28=41,586 
71 AUSDamien HowsonAUSOrica - Scott03:52:00  +  00:07:54=41,509 
72 RSADaryl ImpeyAUSOrica - Scott03:52:13  +  00:08:07=41,470 
73 BELOliver NaesenFRAAg2r La Mondiale03:52:13  +  00:08:07=41,470 
74 LUXBen GastauerFRAAg2r La Mondiale03:52:13  +  00:08:07=41,470 
75 FRACyril GautierFRAAg2r La Mondiale03:52:13  +  00:08:07=41,470 
76 GERSimon GeschkeDEUTeam Sunweb03:52:17  +  00:08:11=41,458 
77 BELJulien VermoteBELQuick-Step Floors03:53:08  +  00:09:02=41,307 
78 ITAMarco MarcatoUAEUAE Team Emirates03:53:08  +  00:09:02=41,307 
79 HRVKristijan DurasekUAEUAE Team Emirates03:53:08  +  00:09:02=41,307 
80 ITAMatteo BonoUAEUAE Team Emirates03:53:08  +  00:09:02=41,307 
81 COLDarwin AtapumaUAEUAE Team Emirates03:53:08  +  00:09:02=41,307 
82 FRAPerrig QuemeneurFRADirect Energie03:53:08  +  00:09:02=41,307 
83 FRAPierre-Luc PérichonFRAFortuneo - Vital Concept03:53:16  +  00:09:10=41,283 
84 ITAAlberto BettiolUSACannondale-Drapac Pro Cycling ..03:53:19  +  00:09:13=41,274 
85 FRARomain SicardFRADirect Energie03:53:25  +  00:09:19=41,257 
86 NZLPaddy BevinUSACannondale-Drapac Pro Cycling ..03:53:25  +  00:09:19=41,257 
87 GERChristian KneesGBRSky Procycling03:54:05  +  00:09:59=41,139 
88 AUSAdam HansenBELLotto Soudal03:54:05  +  00:09:59=41,139 
89 AUSSimon ClarkeUSACannondale-Drapac Pro Cycling ..03:54:05  +  00:09:59=41,139 
90 GERPaul MartensNLDTeam Lotto NL - Jumbo03:54:05  +  00:09:59=41,139 
91 NEDRobert GesinkNLDTeam Lotto NL - Jumbo03:54:05  +  00:09:59=41,139 
92 ESPDaniel NavarroFRACofidis – Solutions Crédits03:54:05  +  00:09:59=41,139 
93 NORVegard Stake LaengenUAEUAE Team Emirates03:54:11  +  00:10:05=41,122 
94 NOREdvald Boasson HagenZAFDimension Data03:54:11  +  00:10:05=41,122 
95 BELJens KeukeleireAUSOrica - Scott03:54:11  +  00:10:05=41,122 
96 GERMarcus BurghardtDEUBora–Hansgrohe03:54:20  +  00:10:14=41,095 
97 FRAYoann OffredoBELWanty – Groupe Gobert03:54:44  +  00:10:38=41,025 
98 BELFrederik BackaertBELWanty – Groupe Gobert03:54:44  +  00:10:38=41,025 
99 DENLars BakBELLotto Soudal03:54:44  +  00:10:38=41,025 
100 GERTony MartinCHETeam Katusha - Alpecin03:54:44  +  00:10:38=41,025 
101 GERJasha SütterlinESPMovistar Team03:54:53  +  00:10:47=40,999 
102 ESPJesus HerradaESPMovistar Team03:54:53  +  00:10:47=40,999 
103 ESPImanol ErvitiESPMovistar Team03:54:53  +  00:10:47=40,999 
104 CRCAndrey AmadorESPMovistar Team03:54:53  +  00:10:47=40,999 
105 RSAReinardt Janse Van RensburgZAFDimension Data03:54:53  +  00:10:47=40,999 
106 CZEZdenek StybarBELQuick-Step Floors03:55:02  +  00:10:56=40,973 
107 NZLJack BauerBELQuick-Step Floors03:55:02  +  00:10:56=40,973 
108 BELGreg Van AvermaetUSABMC Racing Team03:55:02  +  00:10:56=40,973 
109 GERNikias ArndtDEUTeam Sunweb03:55:16  +  00:11:10=40,932 
110 NEDMike TeunissenDEUTeam Sunweb03:55:16  +  00:11:10=40,932 
111 JPNYukiya ArashiroBHRBahrain-Merida03:55:17  +  00:11:11=40,929 
112 FRAAxel DomontFRAAg2r La Mondiale03:55:20  +  00:11:14=40,921 
113 FRAAngelo TulikFRADirect Energie03:55:20  +  00:11:14=40,921 
114 NEDTimo RoosenNLDTeam Lotto NL - Jumbo03:55:20  +  00:11:14=40,921 
115 BELPieter VanspeybrouckBELWanty – Groupe Gobert03:55:20  +  00:11:14=40,921 
116 KAZAndrey ZeitsKAZAstana Pro Team03:55:20  +  00:11:14=40,921 
117 NEDDylan Van BaarleUSACannondale-Drapac Pro Cycling ..03:55:32  +  00:11:26=40,886 
118 BLRVasil KiryienkaGBRSky Procycling03:55:32  +  00:11:26=40,886 
119 BELThomas De GendtBELLotto Soudal03:56:04  +  00:11:58=40,794 
120 GERRick ZabelCHETeam Katusha - Alpecin03:56:04  +  00:11:58=40,794 
121 NEDKoen De KortUSATrek – Segafredo03:56:04  +  00:11:58=40,794 
122 KAZBakhtiyar KozhatayevKAZAstana Pro Team03:56:04  +  00:11:58=40,794 
123 NZLDion SmithBELWanty – Groupe Gobert03:56:04  +  00:11:58=40,794 
124 FRAJulien SimonFRACofidis – Solutions Crédits03:56:04  +  00:11:58=40,794 
125 ESPMarkel IrizarUSATrek – Segafredo03:56:04  +  00:11:58=40,794 
126 FRACyril LemoineFRACofidis – Solutions Crédits03:56:04  +  00:11:58=40,794 
127 ENGScott ThwaitesZAFDimension Data03:56:04  +  00:11:58=40,794 
128 SUIMichael AlbasiniAUSOrica - Scott03:56:04  +  00:11:58=40,794 
129 ITADario CataldoKAZAstana Pro Team03:56:04  +  00:11:58=40,794 
130 ITAAndrea PasqualonBELWanty – Groupe Gobert03:56:04  +  00:11:58=40,794 
131 NEDJos Van EmdenNLDTeam Lotto NL - Jumbo03:56:04  +  00:11:58=40,794 
132 SUIDanilo WyssUSABMC Racing Team03:56:04  +  00:11:58=40,794 
133 BELJürgen RoelandtsBELLotto Soudal03:56:04  +  00:11:58=40,794 
134 ETHTsgabu Gebremaryan GrmayBHRBahrain-Merida03:56:04  +  00:11:58=40,794 
135 KAZDmitriy GruzdevKAZAstana Pro Team03:56:11  +  00:12:05=40,773 
136 ITAAlessandro De MarchiUSABMC Racing Team03:57:33  +  00:13:27=40,539 
137 ITAFabio FellineUSATrek – Segafredo03:57:49  +  00:13:43=40,493 
138 FRAAdrien PetitFRADirect Energie03:57:53  +  00:13:47=40,482 
139 SUIReto HollensteinCHETeam Katusha - Alpecin03:57:57  +  00:13:51=40,471 
140 ITADaniele BennatiESPMovistar Team03:57:57  +  00:13:51=40,471 
141 POLMaciej BodnarDEUBora–Hansgrohe03:57:57  +  00:13:51=40,471 
142 AUSMichael MatthewsDEUTeam Sunweb03:58:19  +  00:14:13=40,408 
143 UKRAndriy GrivkoKAZAstana Pro Team03:58:31  +  00:14:25=40,375 
144 AUTMichael GoglUSATrek – Segafredo03:58:31  +  00:14:25=40,375 
145 FRAYohann GèneFRADirect Energie03:58:34  +  00:14:28=40,366 
146 ITAFabio SabatiniBELQuick-Step Floors03:59:13  +  00:15:07=40,256 
147 NEDRoy CurversDEUTeam Sunweb03:59:13  +  00:15:07=40,256 
148 GERNils PolittCHETeam Katusha - Alpecin03:59:13  +  00:15:07=40,256 
149 BELDimitri ClaeysFRACofidis – Solutions Crédits03:59:16  +  00:15:10=40,248 
150 FRALaurent PichonFRAFortuneo - Vital Concept03:59:17  +  00:15:11=40,245 
151 FRAThomas BoudatFRADirect Energie03:59:17  +  00:15:11=40,245 
152 DENMichael ValgrenKAZAstana Pro Team03:59:17  +  00:15:11=40,245 
153 FRANacer BouhanniFRACofidis – Solutions Crédits03:59:17  +  00:15:11=40,245 
154 FRAAmaël MoinardUSABMC Racing Team03:59:17  +  00:15:11=40,245 
155 FRAFlorian SénéchalFRACofidis – Solutions Crédits03:59:17  +  00:15:11=40,245 
156 POLPawel PoljanskiDEUBora–Hansgrohe03:59:17  +  00:15:11=40,245 
157 NEDRamon SinkeldamDEUTeam Sunweb03:59:22  +  00:15:16=40,231 
158 FRAFlorian VachonFRAFortuneo - Vital Concept03:59:24  +  00:15:18=40,226 
159 NEDTom LeezerNLDTeam Lotto NL - Jumbo03:59:25  +  00:15:19=40,223 
160 ITASonny ColbrelliBHRBahrain-Merida03:59:30  +  00:15:24=40,209 
161 SLOGrega BoleBHRBahrain-Merida03:59:30  +  00:15:24=40,209 
162 SLOBorut BozicBHRBahrain-Merida03:59:32  +  00:15:26=40,203 
163 AUSMark RenshawZAFDimension Data03:59:49  +  00:15:43=40,156 
164 NEDAlbert TimmerDEUTeam Sunweb03:59:53  +  00:15:47=40,145 
165 GERMarcel KittelBELQuick-Step Floors03:59:53  +  00:15:47=40,145 
166 GERJohn DegenkolbUSATrek – Segafredo03:59:53  +  00:15:47=40,145 
167 ENGStephen CummingsZAFDimension Data03:59:53  +  00:15:47=40,145 
168 NEDDylan GroenewegenNLDTeam Lotto NL - Jumbo03:59:53  +  00:15:47=40,145 
169 SVKJuraj SaganDEUBora–Hansgrohe04:00:07  +  00:16:01=40,106 
170 AUSMathew HaymanAUSOrica - Scott04:00:21  +  00:16:15=40,067 
171 AUTBernhard EiselZAFDimension Data04:00:21  +  00:16:15=40,067 
172 ENGBen SwiftUAEUAE Team Emirates04:00:22  +  00:16:16=40,064 
173 WALLuke RoweGBRSky Procycling04:00:22  +  00:16:16=40,064 
174 SUIMichael SchärUSABMC Racing Team04:00:27  +  00:16:21=40,050 
175 SUIStefan KüngUSABMC Racing Team04:00:27  +  00:16:21=40,050 
176 FRAChristophe LaporteFRACofidis – Solutions Crédits04:00:40  +  00:16:34=40,014 
177 ENGDaniel McLayFRAFortuneo - Vital Concept04:03:22  +  00:19:16=39,570 
178 GERMarcel SiebergBELLotto Soudal04:03:43  +  00:19:37=39,513 
179 GERRobert WagnerNLDTeam Lotto NL - Jumbo04:03:43  +  00:19:37=39,513 
180 GERAndré GreipelBELLotto Soudal04:03:43  +  00:19:37=39,513 
181 RSAJaco VenterZAFDimension Data04:03:43  +  00:19:37=39,513 
182 AUTMarco HallerCHETeam Katusha - Alpecin04:03:43  +  00:19:37=39,513 
183 USATaylor PhinneyUSACannondale-Drapac Pro Cycling ..04:03:46  +  00:19:40=39,505 
184 FRAMickael DelageFRAFDJ04:03:55  +  00:19:49=39,481 
185 URSIgnatas KonovalovasFRAFDJ04:03:55  +  00:19:49=39,481 
186 BELGuillaume Van KeirsbulckBELWanty – Groupe Gobert04:03:55  +  00:19:49=39,481 
187 FRAArnaud DémareFRAFDJ04:03:55  +  00:19:49=39,481 
188 DDRRüdiger SeligDEUBora–Hansgrohe04:03:55  +  00:19:49=39,481 
189 NORAlexander KristoffCHETeam Katusha - Alpecin04:03:55  +  00:19:49=39,481 
190 FRAOlivier Le GacFRAFDJ04:04:35  +  00:20:29=39,373 
191 ITAMatteo TrentinBELQuick-Step Floors04:05:01  +  00:20:55=39,303 
192 ITADavide CimolaiFRAFDJ04:06:53  +  00:22:47=39,006 
193 ITAJacopo GuarnieriFRAFDJ04:06:56  +  00:22:50=38,998 

Withdrawls: 1
 
Rider
Team
Reason
91  IOMMark CavendishZAFDimension DataDid not start

Todays birthdays.

1874  Henri Timmermann
1877  Gustave Guillarme
1886  Guillaume Nyssen
1892  Albert Cartigny
1913  Arsène Mersch
1919  Jean Breuer
1927  Alfred Kain
1930  Edgard Sorgeloos
1937  Frans De Mulder
1960  Jacques Hanegraaf
1986  Andrey Zeits